Time,TemperatureF,DewpointF,PressureIn,WindDirection,WindDirectionDegrees,WindSpeedMPH,WindSpeedGustMPH,Humidity,HourlyPrecipIn,Conditions,Clouds,dailyrainin,SoftwareType,DateUTC
2013-08-07 00:01:00,56.5,52.0,29.94,NE,52,5.0,5.0,85,0.00,,,0.00,Wunderground v.1.15,2013-08-07 07:01:00,
2013-08-07 00:16:00,56.4,51.9,29.94,ENE,65,5.0,5.0,85,0.00,,,0.00,Wunderground v.1.15,2013-08-07 07:16:00,
2013-08-07 00:21:00,56.3,52.2,29.95,South,172,5.0,5.0,86,0.00,,,0.00,Wunderground v.1.15,2013-08-07 07:21:00,
2013-08-07 00:30:00,56.3,52.2,29.95,NW,308,4.0,6.0,86,0.00,,,0.00,Wunderground v.1.15,2013-08-07 07:30:00,
2013-08-07 00:35:00,56.3,52.2,29.95,North,9,3.0,6.0,86,0.00,,,0.00,Wunderground v.1.15,2013-08-07 07:35:00,
2013-08-07 00:40:00,56.4,52.3,29.95,NW,326,4.0,4.0,86,0.00,,,0.00,Wunderground v.1.15,2013-08-07 07:40:00,
2013-08-07 00:46:00,56.4,52.3,29.95,WNW,292,4.0,6.0,86,0.00,,,0.00,Wunderground v.1.15,2013-08-07 07:46:00,
2013-08-07 00:51:00,56.3,51.8,29.95,North,349,4.0,4.0,85,0.00,,,0.00,Wunderground v.1.15,2013-08-07 07:51:00,
2013-08-07 00:56:00,56.3,52.2,29.95,West,263,4.0,4.0,86,0.00,,,0.00,Wunderground v.1.15,2013-08-07 07:56:00,
2013-08-07 01:05:00,56.4,51.9,29.95,North,4,3.0,8.0,85,0.00,,,0.00,Wunderground v.1.15,2013-08-07 08:05:00,
2013-08-07 01:11:00,56.5,52.0,29.95,West,269,3.0,3.0,85,0.00,,,0.00,Wunderground v.1.15,2013-08-07 08:11:00,
2013-08-07 01:20:00,56.6,52.1,29.95,NNW,340,3.0,4.0,85,0.00,,,0.00,Wunderground v.1.15,2013-08-07 08:20:00,
2013-08-07 01:26:00,56.6,52.1,29.95,NNE,12,4.0,4.0,85,0.00,,,0.00,Wunderground v.1.15,2013-08-07 08:26:00,
2013-08-07 01:35:00,56.5,52.0,29.95,NNW,344,3.0,6.0,85,0.00,,,0.00,Wunderground v.1.15,2013-08-07 08:35:00,
2013-08-07 01:40:00,56.5,52.0,29.95,West,264,4.0,4.0,85,0.00,,,0.00,Wunderground v.1.15,2013-08-07 08:40:00,
2013-08-07 01:45:00,56.5,52.0,29.95,NNW,330,4.0,5.0,85,0.00,,,0.00,Wunderground v.1.15,2013-08-07 08:45:00,
2013-08-07 01:50:00,56.4,51.9,29.95,ESE,119,4.0,4.0,85,0.00,,,0.00,Wunderground v.1.15,2013-08-07 08:50:00,
2013-08-07 01:56:00,56.4,51.9,29.95,ENE,58,4.0,4.0,85,0.00,,,0.00,Wunderground v.1.15,2013-08-07 08:56:00,
2013-08-07 02:01:00,56.3,51.8,29.95,South,180,4.0,4.0,85,0.00,,,0.00,Wunderground v.1.15,2013-08-07 09:01:00,
2013-08-07 02:11:00,56.4,51.9,29.95,SW,230,3.0,3.0,85,0.00,,,0.00,Wunderground v.1.15,2013-08-07 09:11:00,
2013-08-07 02:21:00,56.3,51.8,29.95,SSE,162,2.0,2.0,85,0.00,,,0.00,Wunderground v.1.15,2013-08-07 09:21:00,
2013-08-07 02:30:00,56.3,51.8,29.95,WSW,250,2.0,4.0,85,0.00,,,0.00,Wunderground v.1.15,2013-08-07 09:30:00,
2013-08-07 02:35:00,56.3,51.8,29.95,SW,222,2.0,4.0,85,0.00,,,0.00,Wunderground v.1.15,2013-08-07 09:35:00,
2013-08-07 02:40:00,56.4,51.9,29.95,West,259,2.0,5.0,85,0.00,,,0.00,Wunderground v.1.15,2013-08-07 09:40:00,
2013-08-07 02:45:00,56.4,51.9,29.96,WSW,252,2.0,5.0,85,0.00,,,0.00,Wunderground v.1.15,2013-08-07 09:45:00,
2013-08-07 02:51:00,56.4,51.9,29.96,SSW,210,2.0,2.0,85,0.00,,,0.00,Wunderground v.1.15,2013-08-07 09:51:00,
2013-08-07 02:56:00,56.4,51.9,29.96,WNW,288,2.0,2.0,85,0.00,,,0.00,Wunderground v.1.15,2013-08-07 09:56:00,
2013-08-07 03:01:00,56.4,51.9,29.96,East,97,2.0,2.0,85,0.00,,,0.00,Wunderground v.1.15,2013-08-07 10:01:00,
2013-08-07 03:06:00,56.4,51.9,29.96,WNW,291,2.0,3.0,85,0.00,,,0.00,Wunderground v.1.15,2013-08-07 10:06:00,
2013-08-07 03:15:00,56.3,51.8,29.96,West,266,2.0,2.0,85,0.00,,,0.00,Wunderground v.1.15,2013-08-07 10:15:00,
2013-08-07 03:20:00,56.3,51.8,29.96,NE,34,1.0,3.0,85,0.00,,,0.00,Wunderground v.1.15,2013-08-07 10:20:00,
2013-08-07 03:25:00,56.3,51.8,29.96,WNW,303,2.0,3.0,85,0.00,,,0.00,Wunderground v.1.15,2013-08-07 10:25:00,
2013-08-07 03:31:00,56.3,51.8,29.95,WNW,292,2.0,2.0,85,0.00,,,0.00,Wunderground v.1.15,2013-08-07 10:31:00,
2013-08-07 03:36:00,56.3,51.8,29.95,West,280,3.0,6.0,85,0.00,,,0.00,Wunderground v.1.15,2013-08-07 10:36:00,
2013-08-07 03:41:00,56.2,51.7,29.95,NNW,333,3.0,3.0,85,0.00,,,0.00,Wunderground v.1.15,2013-08-07 10:41:00,
2013-08-07 03:50:00,56.1,51.7,29.96,WNW,301,3.0,3.0,85,0.00,,,0.00,Wunderground v.1.15,2013-08-07 10:50:00,
2013-08-07 03:55:00,56.0,51.6,29.96,WNW,292,4.0,4.0,85,0.00,,,0.00,Wunderground v.1.15,2013-08-07 10:55:00,
2013-08-07 04:00:00,55.9,51.8,29.96,NW,322,4.0,4.0,86,0.00,,,0.00,Wunderground v.1.15,2013-08-07 11:00:00,
2013-08-07 04:06:00,56.0,51.9,29.96,SW,233,2.0,4.0,86,0.00,,,0.00,Wunderground v.1.15,2013-08-07 11:06:00,
2013-08-07 04:15:00,56.1,51.7,29.96,SW,223,1.0,1.0,85,0.00,,,0.00,Wunderground v.1.15,2013-08-07 11:15:00,
2013-08-07 04:20:00,56.1,51.7,29.96,South,177,1.0,1.0,85,0.00,,,0.00,Wunderground v.1.15,2013-08-07 11:20:00,
2013-08-07 04:25:00,56.2,51.7,29.96,WNW,297,2.0,3.0,85,0.00,,,0.00,Wunderground v.1.15,2013-08-07 11:25:00,
2013-08-07 04:31:00,56.2,51.7,29.96,West,270,3.0,5.0,85,0.00,,,0.00,Wunderground v.1.15,2013-08-07 11:31:00,
2013-08-07 04:36:00,56.2,51.7,29.96,West,259,2.0,2.0,85,0.00,,,0.00,Wunderground v.1.15,2013-08-07 11:36:00,
2013-08-07 04:45:00,56.2,51.7,29.96,West,280,2.0,2.0,85,0.00,,,0.00,Wunderground v.1.15,2013-08-07 11:45:00,
2013-08-07 04:50:00,56.2,51.7,29.96,SW,223,2.0,4.0,85,0.00,,,0.00,Wunderground v.1.15,2013-08-07 11:50:00,
2013-08-07 04:55:00,56.1,51.7,29.96,SW,228,2.0,3.0,85,0.00,,,0.00,Wunderground v.1.15,2013-08-07 11:55:00,
2013-08-07 05:00:00,56.0,51.6,29.96,West,276,3.0,3.0,85,0.00,,,0.00,Wunderground v.1.15,2013-08-07 12:00:00,
2013-08-07 05:06:00,56.0,51.6,29.96,SSW,195,2.0,3.0,85,0.00,,,0.00,Wunderground v.1.15,2013-08-07 12:06:00,
2013-08-07 05:15:00,55.7,51.6,29.96,WSW,249,3.0,3.0,86,0.00,,,0.00,Wunderground v.1.15,2013-08-07 12:15:00,
2013-08-07 05:20:00,55.7,51.6,29.96,North,351,2.0,3.0,86,0.00,,,0.00,Wunderground v.1.15,2013-08-07 12:20:00,
2013-08-07 05:25:00,55.7,51.6,29.96,SE,136,1.0,1.0,86,0.00,,,0.00,Wunderground v.1.15,2013-08-07 12:25:00,
2013-08-07 05:30:00,55.7,51.6,29.96,WSW,255,1.0,1.0,86,0.00,,,0.00,Wunderground v.1.15,2013-08-07 12:30:00,
2013-08-07 05:36:00,55.7,51.6,29.96,North,1,0.0,0.0,86,0.00,,,0.00,Wunderground v.1.15,2013-08-07 12:36:00,
2013-08-07 05:41:00,55.7,51.6,29.96,West,265,1.0,2.0,86,0.00,,,0.00,Wunderground v.1.15,2013-08-07 12:41:00,
2013-08-07 05:50:00,55.7,51.6,29.96,West,269,1.0,3.0,86,0.00,,,0.00,Wunderground v.1.15,2013-08-07 12:50:00,
2013-08-07 05:55:00,55.7,51.3,29.96,WNW,283,2.0,2.0,85,0.00,,,0.00,Wunderground v.1.15,2013-08-07 12:55:00,
2013-08-07 06:00:00,55.7,51.3,29.96,ENE,65,3.0,3.0,85,0.00,,,0.00,Wunderground v.1.15,2013-08-07 13:00:00,
2013-08-07 06:05:00,55.7,51.3,29.96,West,270,3.0,3.0,85,0.00,,,0.00,Wunderground v.1.15,2013-08-07 13:05:00,
2013-08-07 06:15:00,55.7,51.3,29.96,WSW,248,1.0,4.0,85,0.00,,,0.00,Wunderground v.1.15,2013-08-07 13:15:00,
2013-08-07 06:20:00,55.6,51.2,29.97,West,278,2.0,4.0,85,0.00,,,0.00,Wunderground v.1.15,2013-08-07 13:20:00,
2013-08-07 06:40:00,55.7,50.9,29.97,WSW,252,1.0,2.0,84,0.00,,,0.00,Wunderground v.1.15,2013-08-07 13:40:00,
2013-08-07 06:50:00,55.8,51.0,29.96,NW,324,2.0,4.0,84,0.00,,,0.00,Wunderground v.1.15,2013-08-07 13:50:00,
2013-08-07 06:55:00,55.9,51.1,29.97,WSW,254,3.0,4.0,84,0.00,,,0.00,Wunderground v.1.15,2013-08-07 13:55:00,
2013-08-07 07:05:00,56.0,50.9,29.97,NNE,25,2.0,3.0,83,0.00,,,0.00,Wunderground v.1.15,2013-08-07 14:05:00,
2013-08-07 07:11:00,56.1,51.0,29.97,West,276,2.0,5.0,83,0.00,,,0.00,Wunderground v.1.15,2013-08-07 14:11:00,
2013-08-07 07:20:00,56.4,51.0,29.97,NE,47,1.0,4.0,82,0.00,,,0.00,Wunderground v.1.15,2013-08-07 14:20:00,
2013-08-07 07:25:00,56.3,50.9,29.97,West,264,2.0,5.0,82,0.00,,,0.00,Wunderground v.1.15,2013-08-07 14:25:00,
2013-08-07 07:35:00,56.5,51.1,29.98,SSW,202,3.0,4.0,82,0.00,,,0.00,Wunderground v.1.15,2013-08-07 14:35:00,
2013-08-07 07:40:00,56.6,51.2,29.98,West,281,3.0,3.0,82,0.00,,,0.00,Wunderground v.1.15,2013-08-07 14:40:00,
2013-08-07 07:50:00,56.7,51.3,29.98,SW,228,2.0,10.0,82,0.00,,,0.00,Wunderground v.1.15,2013-08-07 14:50:00,
2013-08-07 07:55:00,56.7,50.9,29.98,West,269,2.0,10.0,81,0.00,,,0.00,Wunderground v.1.15,2013-08-07 14:55:00,
2013-08-07 08:05:00,57.0,51.2,29.98,WNW,285,2.0,2.0,81,0.00,,,0.00,Wunderground v.1.15,2013-08-07 15:05:00,
2013-08-07 08:11:00,57.4,51.3,29.99,West,268,2.0,3.0,80,0.00,,,0.00,Wunderground v.1.15,2013-08-07 15:11:00,
2013-08-07 08:20:00,58.2,51.7,29.99,NNE,20,2.0,2.0,79,0.00,,,0.00,Wunderground v.1.15,2013-08-07 15:20:00,
2013-08-07 08:25:00,58.8,51.6,29.99,NW,311,2.0,2.0,77,0.00,,,0.00,Wunderground v.1.15,2013-08-07 15:25:00,
2013-08-07 08:35:00,59.3,51.7,29.99,SW,216,2.0,2.0,76,0.00,,,0.00,Wunderground v.1.15,2013-08-07 15:35:00,
2013-08-07 08:40:00,59.7,51.8,29.99,ENE,66,2.0,2.0,75,0.00,,,0.00,Wunderground v.1.15,2013-08-07 15:40:00,
2013-08-07 08:50:00,59.9,51.6,29.99,South,186,3.0,3.0,74,0.00,,,0.00,Wunderground v.1.15,2013-08-07 15:50:00,
2013-08-07 08:55:00,60.2,51.9,30.00,SSW,205,3.0,3.0,74,0.00,,,0.00,Wunderground v.1.15,2013-08-07 15:55:00,
2013-08-07 09:05:00,60.5,52.2,30.00,WNW,283,4.0,6.0,74,0.00,,,0.00,Wunderground v.1.15,2013-08-07 16:05:00,
2013-08-07 09:11:00,60.6,52.3,30.00,WNW,291,3.0,4.0,74,0.00,,,0.00,Wunderground v.1.15,2013-08-07 16:11:00,
2013-08-07 09:20:00,60.8,52.1,30.00,SW,225,3.0,5.0,73,0.00,,,0.00,Wunderground v.1.15,2013-08-07 16:20:00,
2013-08-07 09:25:00,61.1,52.0,30.00,SW,219,3.0,10.0,72,0.00,,,0.00,Wunderground v.1.15,2013-08-07 16:25:00,
2013-08-07 09:30:00,61.1,52.0,30.00,NW,306,3.0,3.0,72,0.00,,,0.00,Wunderground v.1.15,2013-08-07 16:30:00,
2013-08-07 09:36:00,61.3,52.2,30.00,WSW,238,3.0,3.0,72,0.00,,,0.00,Wunderground v.1.15,2013-08-07 16:36:00,
2013-08-07 09:41:00,61.6,52.5,30.00,NNE,30,3.0,3.0,72,0.00,,,0.00,Wunderground v.1.15,2013-08-07 16:41:00,
2013-08-07 09:50:00,62.5,52.6,30.00,WNW,285,2.0,4.0,70,0.00,,,0.00,Wunderground v.1.15,2013-08-07 16:50:00,
2013-08-07 09:55:00,63.1,52.8,30.00,West,281,3.0,4.0,69,0.00,,,0.00,Wunderground v.1.15,2013-08-07 16:55:00,
2013-08-07 10:00:00,63.2,52.9,30.00,WNW,293,3.0,3.0,69,0.00,,,0.00,Wunderground v.1.15,2013-08-07 17:00:00,
2013-08-07 10:05:00,63.1,52.4,30.00,West,276,3.0,3.0,68,0.00,,,0.00,Wunderground v.1.15,2013-08-07 17:05:00,
2013-08-07 10:15:00,63.5,52.7,30.00,SW,228,3.0,3.0,68,0.00,,,0.00,Wunderground v.1.15,2013-08-07 17:15:00,
2013-08-07 10:21:00,63.3,52.6,30.00,SW,217,4.0,4.0,68,0.00,,,0.00,Wunderground v.1.15,2013-08-07 17:21:00,
2013-08-07 10:26:00,63.7,52.5,30.00,SW,215,4.0,5.0,67,0.00,,,0.00,Wunderground v.1.15,2013-08-07 17:26:00,
2013-08-07 10:35:00,64.0,52.8,30.00,SSW,209,4.0,4.0,67,0.00,,,0.00,Wunderground v.1.15,2013-08-07 17:35:00,
2013-08-07 10:40:00,64.6,53.0,30.00,WNW,291,3.0,4.0,66,0.00,,,0.00,Wunderground v.1.15,2013-08-07 17:40:00,
2013-08-07 10:45:00,64.6,52.6,30.00,NW,305,3.0,4.0,65,0.00,,,0.00,Wunderground v.1.15,2013-08-07 17:45:00,
2013-08-07 10:51:00,64.1,52.9,30.00,SSW,212,4.0,4.0,67,0.00,,,0.00,Wunderground v.1.15,2013-08-07 17:51:00,
2013-08-07 10:56:00,64.8,53.2,30.00,WSW,247,4.0,4.0,66,0.00,,,0.00,Wunderground v.1.15,2013-08-07 17:56:00,
2013-08-07 11:01:00,65.5,53.0,30.00,WNW,301,3.0,7.0,64,0.00,,,0.00,Wunderground v.1.15,2013-08-07 18:01:00,
2013-08-07 11:11:00,66.2,53.7,30.00,WSW,252,4.0,9.0,64,0.00,,,0.00,Wunderground v.1.15,2013-08-07 18:11:00,
2013-08-07 11:21:00,67.1,53.6,30.00,WSW,252,3.0,3.0,62,0.00,,,0.00,Wunderground v.1.15,2013-08-07 18:21:00,
2013-08-07 11:30:00,68.0,53.6,30.00,SSW,192,3.0,3.0,60,0.00,,,0.00,Wunderground v.1.15,2013-08-07 18:30:00,
2013-08-07 11:35:00,68.1,53.7,30.01,West,268,3.0,6.0,60,0.00,,,0.00,Wunderground v.1.15,2013-08-07 18:35:00,
2013-08-07 11:40:00,67.2,52.8,30.00,WSW,243,4.0,4.0,60,0.00,,,0.00,Wunderground v.1.15,2013-08-07 18:40:00,
2013-08-07 11:46:00,67.2,52.4,30.00,NNW,337,5.0,5.0,59,0.00,,,0.00,Wunderground v.1.15,2013-08-07 18:46:00,
2013-08-07 11:51:00,67.4,53.0,30.00,SSW,208,5.0,6.0,60,0.00,,,0.00,Wunderground v.1.15,2013-08-07 18:51:00,
2013-08-07 11:56:00,68.0,53.6,30.00,West,271,5.0,10.0,60,0.00,,,0.00,Wunderground v.1.15,2013-08-07 18:56:00,
2013-08-07 12:05:00,68.0,53.6,30.00,SSE,159,5.0,6.0,60,0.00,,,0.00,Wunderground v.1.15,2013-08-07 19:05:00,
2013-08-07 12:11:00,68.8,53.4,30.00,West,261,4.0,4.0,58,0.00,,,0.00,Wunderground v.1.15,2013-08-07 19:11:00,
2013-08-07 12:20:00,69.6,53.7,30.00,SW,225,3.0,4.0,57,0.00,,,0.00,Wunderground v.1.15,2013-08-07 19:20:00,
2013-08-07 12:25:00,69.7,53.8,30.00,West,262,4.0,6.0,57,0.00,,,0.00,Wunderground v.1.15,2013-08-07 19:25:00,
2013-08-07 12:31:00,69.5,53.6,30.00,WNW,292,4.0,6.0,57,0.00,,,0.00,Wunderground v.1.15,2013-08-07 19:31:00,
2013-08-07 12:36:00,69.6,53.7,30.00,South,174,5.0,5.0,57,0.00,,,0.00,Wunderground v.1.15,2013-08-07 19:36:00,
2013-08-07 12:45:00,70.1,54.2,29.99,SW,229,4.0,6.0,57,0.00,,,0.00,Wunderground v.1.15,2013-08-07 19:45:00,
2013-08-07 12:50:00,70.1,53.7,29.99,North,359,4.0,6.0,56,0.00,,,0.00,Wunderground v.1.15,2013-08-07 19:50:00,
2013-08-07 12:55:00,70.2,53.8,29.99,WSW,237,5.0,5.0,56,0.00,,,0.00,Wunderground v.1.15,2013-08-07 19:55:00,
2013-08-07 13:01:00,71.1,54.1,29.99,WNW,283,4.0,4.0,55,0.00,,,0.00,Wunderground v.1.15,2013-08-07 20:01:00,
2013-08-07 13:06:00,71.4,53.9,29.99,WNW,286,4.0,4.0,54,0.00,,,0.00,Wunderground v.1.15,2013-08-07 20:06:00,
2013-08-07 13:15:00,71.1,54.1,29.99,SW,217,5.0,9.0,55,0.00,,,0.00,Wunderground v.1.15,2013-08-07 20:15:00,
2013-08-07 13:21:00,71.0,54.5,29.99,West,263,5.0,5.0,56,0.00,,,0.00,Wunderground v.1.15,2013-08-07 20:21:00,
2013-08-07 13:26:00,72.8,54.7,29.98,WSW,258,3.0,5.0,53,0.00,,,0.00,Wunderground v.1.15,2013-08-07 20:26:00,
2013-08-07 13:35:00,73.2,55.0,29.99,SW,221,3.0,3.0,53,0.00,,,0.00,Wunderground v.1.15,2013-08-07 20:35:00,
2013-08-07 13:41:00,72.3,54.7,29.98,SW,227,4.0,4.0,54,0.00,,,0.00,Wunderground v.1.15,2013-08-07 20:41:00,
2013-08-07 13:46:00,72.3,54.7,29.98,West,269,5.0,5.0,54,0.00,,,0.00,Wunderground v.1.15,2013-08-07 20:46:00,
2013-08-07 13:55:00,73.2,55.6,29.98,SSW,203,3.0,4.0,54,0.00,,,0.00,Wunderground v.1.15,2013-08-07 20:55:00,
2013-08-07 14:01:00,73.1,54.9,29.98,SW,214,4.0,4.0,53,0.00,,,0.00,Wunderground v.1.15,2013-08-07 21:01:00,
2013-08-07 14:15:00,71.7,55.2,29.98,SSW,199,6.0,6.0,56,0.00,,,0.00,Wunderground v.1.15,2013-08-07 21:15:00,
2013-08-07 14:21:00,72.1,55.0,29.98,WSW,255,6.0,7.0,55,0.00,,,0.00,Wunderground v.1.15,2013-08-07 21:21:00,
2013-08-07 14:26:00,72.5,54.9,29.98,SW,236,4.0,9.0,54,0.00,,,0.00,Wunderground v.1.15,2013-08-07 21:26:00,
2013-08-07 14:35:00,72.1,55.5,29.97,SSE,167,5.0,5.0,56,0.00,,,0.00,Wunderground v.1.15,2013-08-07 21:35:00,
2013-08-07 14:40:00,73.2,56.1,29.98,West,268,5.0,5.0,55,0.00,,,0.00,Wunderground v.1.15,2013-08-07 21:40:00,
2013-08-07 14:45:00,72.8,56.2,29.97,WSW,243,5.0,5.0,56,0.00,,,0.00,Wunderground v.1.15,2013-08-07 21:45:00,
2013-08-07 14:50:00,73.9,56.2,29.97,West,259,4.0,5.0,54,0.00,,,0.00,Wunderground v.1.15,2013-08-07 21:50:00,
2013-08-07 14:56:00,73.7,55.5,29.97,SW,217,4.0,7.0,53,0.00,,,0.00,Wunderground v.1.15,2013-08-07 21:56:00,
2013-08-07 15:05:00,73.5,55.8,29.96,SW,229,5.0,7.0,54,0.00,,,0.00,Wunderground v.1.15,2013-08-07 22:05:00,
2013-08-07 15:11:00,72.9,55.8,29.96,WSW,239,6.0,6.0,55,0.00,,,0.00,Wunderground v.1.15,2013-08-07 22:11:00,
2013-08-07 15:21:00,73.0,55.9,29.96,SW,216,6.0,6.0,55,0.00,,,0.00,Wunderground v.1.15,2013-08-07 22:21:00,
2013-08-07 15:26:00,73.4,55.7,29.96,WNW,283,5.0,7.0,54,0.00,,,0.00,Wunderground v.1.15,2013-08-07 22:26:00,
2013-08-07 15:31:00,72.7,55.6,29.96,SW,235,6.0,6.0,55,0.00,,,0.00,Wunderground v.1.15,2013-08-07 22:31:00,
2013-08-07 15:36:00,73.1,56.0,29.96,West,277,6.0,6.0,55,0.00,,,0.00,Wunderground v.1.15,2013-08-07 22:36:00,
2013-08-07 15:45:00,72.2,55.6,29.95,SW,223,8.0,8.0,56,0.00,,,0.00,Wunderground v.1.15,2013-08-07 22:45:00,
2013-08-07 15:50:00,72.5,55.9,29.95,WSW,255,8.0,15.0,56,0.00,,,0.00,Wunderground v.1.15,2013-08-07 22:50:00,
2013-08-07 15:55:00,72.9,55.8,29.95,West,271,5.0,15.0,55,0.00,,,0.00,Wunderground v.1.15,2013-08-07 22:55:00,
2013-08-07 16:01:00,73.2,56.1,29.95,SW,217,5.0,5.0,55,0.00,,,0.00,Wunderground v.1.15,2013-08-07 23:01:00,
2013-08-07 16:11:00,72.1,56.0,29.95,West,263,7.0,7.0,57,0.00,,,0.00,Wunderground v.1.15,2013-08-07 23:11:00,
2013-08-07 16:21:00,73.0,55.9,29.95,ESE,108,4.0,4.0,55,0.00,,,0.00,Wunderground v.1.15,2013-08-07 23:21:00,
2013-08-07 16:30:00,72.1,56.0,29.95,North,356,5.0,5.0,57,0.00,,,0.00,Wunderground v.1.15,2013-08-07 23:30:00,
2013-08-07 16:35:00,72.4,56.3,29.94,WSW,246,4.0,5.0,57,0.00,,,0.00,Wunderground v.1.15,2013-08-07 23:35:00,
2013-08-07 16:40:00,73.0,56.4,29.94,SW,215,3.0,3.0,56,0.00,,,0.00,Wunderground v.1.15,2013-08-07 23:40:00,
2013-08-07 16:45:00,73.0,56.4,29.94,SSW,194,3.0,3.0,56,0.00,,,0.00,Wunderground v.1.15,2013-08-07 23:45:00,
2013-08-07 16:51:00,73.0,56.4,29.94,West,273,4.0,9.0,56,0.00,,,0.00,Wunderground v.1.15,2013-08-07 23:51:00,
2013-08-07 17:00:00,72.1,56.0,29.94,WSW,257,5.0,5.0,57,0.00,,,0.00,Wunderground v.1.15,2013-08-08 00:00:00,
2013-08-07 17:05:00,71.9,55.8,29.94,SW,226,5.0,6.0,57,0.00,,,0.00,Wunderground v.1.15,2013-08-08 00:05:00,
2013-08-07 17:15:00,72.5,55.9,29.94,West,276,6.0,6.0,56,0.00,,,0.00,Wunderground v.1.15,2013-08-08 00:15:00,
2013-08-07 17:21:00,72.7,55.6,29.94,SSW,197,6.0,6.0,55,0.00,,,0.00,Wunderground v.1.15,2013-08-08 00:21:00,
2013-08-07 17:26:00,73.1,56.0,29.94,West,262,4.0,4.0,55,0.00,,,0.00,Wunderground v.1.15,2013-08-08 00:26:00,
2013-08-07 17:31:00,73.1,55.5,29.94,SW,232,4.0,8.0,54,0.00,,,0.00,Wunderground v.1.15,2013-08-08 00:31:00,
2013-08-07 17:40:00,71.5,55.5,29.94,WSW,256,6.0,10.0,57,0.00,,,0.00,Wunderground v.1.15,2013-08-08 00:40:00,
2013-08-07 17:45:00,70.9,55.4,29.94,WNW,301,7.0,7.0,58,0.00,,,0.00,Wunderground v.1.15,2013-08-08 00:45:00,
2013-08-07 17:51:00,70.8,55.3,29.94,WSW,250,6.0,7.0,58,0.00,,,0.00,Wunderground v.1.15,2013-08-08 00:51:00,
2013-08-07 17:56:00,70.8,55.3,29.94,NW,315,5.0,5.0,58,0.00,,,0.00,Wunderground v.1.15,2013-08-08 00:56:00,
2013-08-07 18:01:00,70.7,55.2,29.94,WNW,288,5.0,7.0,58,0.00,,,0.00,Wunderground v.1.15,2013-08-08 01:01:00,
2013-08-07 18:11:00,69.7,55.2,29.94,WSW,245,7.0,8.0,60,0.00,,,0.00,Wunderground v.1.15,2013-08-08 01:11:00,
2013-08-07 18:20:00,70.3,55.3,29.94,SW,231,5.0,5.0,59,0.00,,,0.00,Wunderground v.1.15,2013-08-08 01:20:00,
2013-08-07 18:26:00,70.5,55.5,29.94,SW,216,4.0,6.0,59,0.00,,,0.00,Wunderground v.1.15,2013-08-08 01:26:00,
2013-08-07 18:31:00,69.8,55.3,29.94,WSW,256,5.0,6.0,60,0.00,,,0.00,Wunderground v.1.15,2013-08-08 01:31:00,
2013-08-07 18:40:00,69.2,55.2,29.94,West,276,5.0,5.0,61,0.00,,,0.00,Wunderground v.1.15,2013-08-08 01:40:00,
2013-08-07 18:45:00,69.4,55.4,29.94,WNW,286,3.0,5.0,61,0.00,,,0.00,Wunderground v.1.15,2013-08-08 01:45:00,
2013-08-07 18:51:00,69.2,55.2,29.94,SW,224,3.0,3.0,61,0.00,,,0.00,Wunderground v.1.15,2013-08-08 01:51:00,
2013-08-07 18:56:00,69.1,55.1,29.94,SW,219,3.0,5.0,61,0.00,,,0.00,Wunderground v.1.15,2013-08-08 01:56:00,
2013-08-07 19:05:00,68.3,55.2,29.94,SW,225,3.0,3.0,63,0.00,,,0.00,Wunderground v.1.15,2013-08-08 02:05:00,
2013-08-07 19:15:00,67.8,55.2,29.94,West,278,4.0,4.0,64,0.00,,,0.00,Wunderground v.1.15,2013-08-08 02:15:00,
2013-08-07 19:20:00,67.5,55.3,29.94,WSW,245,4.0,4.0,65,0.00,,,0.00,Wunderground v.1.15,2013-08-08 02:20:00,
2013-08-07 19:25:00,67.1,54.9,29.94,SW,217,3.0,3.0,65,0.00,,,0.00,Wunderground v.1.15,2013-08-08 02:25:00,
2013-08-07 19:30:00,66.8,55.1,29.94,WSW,250,2.0,3.0,66,0.00,,,0.00,Wunderground v.1.15,2013-08-08 02:30:00,
2013-08-07 19:36:00,66.3,55.0,29.94,SSW,207,2.0,4.0,67,0.00,,,0.00,Wunderground v.1.15,2013-08-08 02:36:00,
2013-08-07 19:41:00,65.8,54.9,29.94,West,259,3.0,4.0,68,0.00,,,0.00,Wunderground v.1.15,2013-08-08 02:41:00,
2013-08-07 19:50:00,65.1,54.7,29.94,WNW,288,3.0,4.0,69,0.00,,,0.00,Wunderground v.1.15,2013-08-08 02:50:00,
2013-08-07 19:55:00,64.8,54.8,29.94,NW,322,3.0,3.0,70,0.00,,,0.00,Wunderground v.1.15,2013-08-08 02:55:00,
2013-08-07 20:00:00,64.6,54.6,29.94,SW,231,3.0,3.0,70,0.00,,,0.00,Wunderground v.1.15,2013-08-08 03:00:00,
2013-08-07 20:05:00,64.4,54.4,29.94,SW,227,3.0,4.0,70,0.00,,,0.00,Wunderground v.1.15,2013-08-08 03:05:00,
2013-08-07 20:16:00,63.9,54.3,29.94,WNW,289,5.0,5.0,71,0.00,,,0.00,Wunderground v.1.15,2013-08-08 03:16:00,
2013-08-07 20:21:00,63.8,54.2,29.94,WSW,250,4.0,5.0,71,0.00,,,0.00,Wunderground v.1.15,2013-08-08 03:21:00,
2013-08-07 20:30:00,63.3,54.1,29.94,SW,235,3.0,3.0,72,0.00,,,0.00,Wunderground v.1.15,2013-08-08 03:30:00,
2013-08-07 20:35:00,63.1,53.9,29.94,WNW,302,2.0,2.0,72,0.00,,,0.00,Wunderground v.1.15,2013-08-08 03:35:00,
2013-08-07 20:40:00,62.9,53.7,29.94,SW,229,2.0,2.0,72,0.00,,,0.00,Wunderground v.1.15,2013-08-08 03:40:00,
2013-08-07 20:45:00,62.7,53.9,29.94,NW,314,2.0,2.0,73,0.00,,,0.00,Wunderground v.1.15,2013-08-08 03:45:00,
2013-08-07 20:50:00,62.5,53.7,29.94,WNW,295,2.0,2.0,73,0.00,,,0.00,Wunderground v.1.15,2013-08-08 03:50:00,
2013-08-07 20:55:00,62.4,53.6,29.94,WSW,244,2.0,2.0,73,0.00,,,0.00,Wunderground v.1.15,2013-08-08 03:55:00,
2013-08-07 21:01:00,62.2,53.8,29.94,North,356,2.0,2.0,74,0.00,,,0.00,Wunderground v.1.15,2013-08-08 04:01:00,
2013-08-07 21:06:00,62.1,53.7,29.94,West,276,2.0,4.0,74,0.00,,,0.00,Wunderground v.1.15,2013-08-08 04:06:00,
2013-08-07 21:11:00,62.1,53.7,29.94,WNW,297,2.0,2.0,74,0.00,,,0.00,Wunderground v.1.15,2013-08-08 04:11:00,
2013-08-07 21:20:00,61.6,53.6,29.95,NW,317,1.0,1.0,75,0.00,,,0.00,Wunderground v.1.15,2013-08-08 04:20:00,
2013-08-07 21:25:00,61.4,53.8,29.95,WSW,242,1.0,1.0,76,0.00,,,0.00,Wunderground v.1.15,2013-08-08 04:25:00,
2013-08-07 21:30:00,61.2,53.6,29.95,WNW,285,1.0,3.0,76,0.00,,,0.00,Wunderground v.1.15,2013-08-08 04:30:00,
2013-08-07 21:36:00,61.0,53.7,29.95,North,355,3.0,3.0,77,0.00,,,0.00,Wunderground v.1.15,2013-08-08 04:36:00,
2013-08-07 21:41:00,60.9,53.6,29.95,NNW,342,3.0,3.0,77,0.00,,,0.00,Wunderground v.1.15,2013-08-08 04:41:00,
2013-08-07 21:50:00,60.6,53.7,29.95,West,268,4.0,4.0,78,0.00,,,0.00,Wunderground v.1.15,2013-08-08 04:50:00,
2013-08-07 21:55:00,60.5,53.6,29.94,NW,314,4.0,4.0,78,0.00,,,0.00,Wunderground v.1.15,2013-08-08 04:55:00,
2013-08-07 22:00:00,60.4,53.5,29.95,NW,308,4.0,6.0,78,0.00,,,0.00,Wunderground v.1.15,2013-08-08 05:00:00,
2013-08-07 22:06:00,60.4,53.9,29.94,NW,316,4.0,6.0,79,0.00,,,0.00,Wunderground v.1.15,2013-08-08 05:06:00,
2013-08-07 22:15:00,60.1,53.6,29.95,NW,323,5.0,5.0,79,0.00,,,0.00,Wunderground v.1.15,2013-08-08 05:15:00,
2013-08-07 22:20:00,59.9,53.4,29.95,NNW,328,4.0,5.0,79,0.00,,,0.00,Wunderground v.1.15,2013-08-08 05:20:00,
2013-08-07 22:25:00,59.6,53.4,29.95,NW,321,3.0,3.0,80,0.00,,,0.00,Wunderground v.1.15,2013-08-08 05:25:00,
2013-08-07 22:31:00,59.5,53.3,29.95,NW,324,2.0,3.0,80,0.00,,,0.00,Wunderground v.1.15,2013-08-08 05:31:00,
2013-08-07 22:36:00,59.3,53.5,29.95,WNW,285,3.0,3.0,81,0.00,,,0.00,Wunderground v.1.15,2013-08-08 05:36:00,
2013-08-07 22:45:00,59.0,53.2,29.95,WSW,257,3.0,3.0,81,0.00,,,0.00,Wunderground v.1.15,2013-08-08 05:45:00,
2013-08-07 22:50:00,58.9,53.4,29.95,WSW,256,3.0,5.0,82,0.00,,,0.00,Wunderground v.1.15,2013-08-08 05:50:00,
2013-08-07 22:55:00,58.7,53.5,29.94,South,189,3.0,3.0,83,0.00,,,0.00,Wunderground v.1.15,2013-08-08 05:55:00,
2013-08-07 23:01:00,58.6,53.5,29.94,NNW,328,3.0,3.0,83,0.00,,,0.00,Wunderground v.1.15,2013-08-08 06:01:00,
2013-08-07 23:06:00,58.4,53.3,29.94,NNE,30,2.0,3.0,83,0.00,,,0.00,Wunderground v.1.15,2013-08-08 06:06:00,
2013-08-07 23:15:00,57.9,53.1,29.94,NNW,333,1.0,1.0,84,0.00,,,0.00,Wunderground v.1.15,2013-08-08 06:15:00,
2013-08-07 23:20:00,57.8,53.0,29.94,North,354,0.0,2.0,84,0.00,,,0.00,Wunderground v.1.15,2013-08-08 06:20:00,
2013-08-07 23:26:00,57.9,53.1,29.94,WSW,242,1.0,2.0,84,0.00,,,0.00,Wunderground v.1.15,2013-08-08 06:26:00,
2013-08-07 23:35:00,57.6,52.8,29.94,WSW,248,1.0,2.0,84,0.00,,,0.00,Wunderground v.1.15,2013-08-08 06:35:00,
2013-08-07 23:40:00,57.5,53.0,29.94,WSW,255,1.0,1.0,85,0.00,,,0.00,Wunderground v.1.15,2013-08-08 06:40:00,
2013-08-07 23:45:00,57.5,53.0,29.94,WSW,248,2.0,2.0,85,0.00,,,0.00,Wunderground v.1.15,2013-08-08 06:45:00,
2013-08-07 23:51:00,57.5,53.0,29.94,West,264,2.0,2.0,85,0.00,,,0.00,Wunderground v.1.15,2013-08-08 06:51:00,
2013-08-07 23:56:00,57.5,53.0,29.94,WSW,241,3.0,6.0,85,0.00,,,0.00,Wunderground v.1.15,2013-08-08 06:56:00,